Probability
0 0 0 0 0 0 0 0 0 0 0 0 0 0 0 0 0 0 0 0 0 0 0 0 0 0 0 0 0 0 0 0 0 0 0 0 0 0
0 0 0 0 0 0 0 0 0 0 0 0 0 0 0 0 0 0 0 0 0 0 0 0 0 0 0 0 0 0 0 0 0 0 0 0 0 0
0 0 0 0 0 0 0 0 0 0 0 0 0 0 0 0 0 0 0 0 0 0 0 0 0 0 0 0 0 0 0 0 0 0 0 0 0 0
0 0 0 0 0 0 0 0 0 0 0 0 0 0 0 0 0 0 0 0 0 0 0 0 0 0 0 0 0 0 0 0 0 0 0 0 0 0
0 0 0 0 0 0 0 0 0 0 0 0 0 0 0 0 0 0 0 0 0 0 0 0 0 0 0 0 0 0 0 0 0 0 0 0 0 0
0 0 0 0 0 0 0 0 0 0 0 0 0 0 0 0 0 0 0 0 0 0 0 0 0 0 0 0 0 0 0 0 0 0 0 0 0 0
0 0 0 0 0 0 0 0 0 0 0 0 0 0 0 0 0 0 0 0 0 0 0 0 0 0 0 0 0 0 0 0 0 0 0 0 0 0
0 0 0 0 0 0 0 0 0 0 0 0 0 0 0 0 0 0 0 0 0 0 0 0 0 0 0 0 0 0 0 0 0 0 0 0 0 0
0 0 0 0 0 0 0 0 0 0 0 0 0 0 0 0 0 0 0 0 0 0 0 0 0 0 0 0 0 0 0 0 0 0 0 0 0 0
0 0 0 0 0 0 0 0 0 0 0 0 0 0 0 0 0 0 0 0 0 0 0 0 0 0 0 0 0 0 0 0 0 0 0 0 0 0
0 0 0 0 0 0 0 0 0 0 0 0 0 0 0 0 0 0 0 0 0 0 0 0 0 0 0 0 0 0 0 0 0 0 0 0 0 0
0 0 0 0 0 0 0 0 0 0 0 0 0 0 0 0 0 0 0 0 0 0 0 0 0 0 0 0 0 0 0 0 0 0 0 0 0 0
0 0 0 0 0 0 0 0 0 0 0 0 0 0 0 0 0 0 0 0 0 0 0 0 0 0 0 0 0 0 0 0 0 0 0 0 0 0
0 0 0 0 0 0 0 0 0 0 0 0 0 0 0 0 0 0 0 0 0 0 0 0 0 0 0 0 0 0 0 0 0 0 0 0 0 0
0 0 0 0 0 0 0 0 0 0 0 0 0 0 0 0 0 0 0 0 0 0 0 0 0 0 0 0 0 0 0 0 0 0 0 0 0 0
0 0 0 0 0 0 0 0 0 0 0 0 0 0 0 0 0 0 0 0 0 0 0 0 0 0 0 0 0 0 0 0 0 0 0 0 0 0
0 0 0 0 0 0 0 0 0 0 0 0 0 0 0 0 0 0 0 0 0 0 0 0 0 0 0 0 0 0 0 0 0 0 0 0 0 0
0 0 0 0 0 0 0 0 0 0 0 0 0 0 0 0 0 0 0 0 0 0 0 0 0 0 0 0 0 0 0 0 0 0 0 0 0 0
0 0 0 0 0 0 0 0 0 0 0 0 0 0 0 0 0 0 0 0 0 0 0 0 0 0 0 0 0 0 0 0 0 0 0 0 0 0
0 0 0 0 0 0 0 0 0 0 0 0 0 0 0 0 0 0 0 0 0 0 0 0 0 0 0 0 0 0 0 0 0 0 0 0 0 0
0 0 0 0 0 0 0 0 0 0 0 0 0 0 0 0 0 0 0 0 0 0 0 0 0 0 0 0 0 0 0 0 0 0 0 0 0 0
0 0 0 0 0 0 0 0 0 0 0 0 0 0 0 0 0 0 0 0 0 0 0 0 0 0 0 0 0 0 0 0 0 0 0 0 0 0
0 0 0 0 0 0 0 0 0 0 0 0 0 0 0 0 0 0 0 0 0 0 0 0 0 0 0 0 0 0 0 0 0 0 0 0 0 0
Height
5699 5696 5692 5687 5683 5678 5673 5669 5664 5660 5656 5650 5643 5637 5631 5625 5619 5614 5608 5602 5595 5589 5582 5576 5569 5562 5556 5550 5544 5538 5532 5526 5520 5514 5509 5505 5501 5498
5689 5685 5681 5676 5671 5666 5661 5655 5650 5645 5641 5635 5628 5621 5615 5609 5602 5596 5589 5582 5575 5567 5559 5551 5543 5535 5527 5519 5512 5504 5497 5491 5484 5478 5473 5468 5465 5461
5678 5674 5669 5664 5659 5653 5647 5642 5636 5631 5625 5620 5611 5604 5597 5590 5583 5576 5569 5561 5552 5542 5532 5523 5514 5504 5494 5485 5477 5470 5463 5457 5451 5447 5442 5439 5437 5435
5667 5662 5657 5652 5646 5640 5635 5629 5622 5616 5610 5604 5596 5588 5579 5571 5564 5556 5547 5537 5526 5514 5503 5492 5482 5471 5462 5453 5446 5440 5435 5431 5427 5424 5421 5418 5417 5415
5655 5650 5645 5639 5633 5628 5621 5615 5608 5600 5593 5587 5580 5571 5562 5552 5544 5535 5524 5511 5497 5484 5473 5462 5452 5442 5433 5426 5422 5418 5414 5411 5408 5406 5403 5401 5400 5400
5643 5638 5632 5626 5620 5614 5607 5600 5592 5585 5577 5570 5562 5554 5544 5532 5522 5512 5502 5487 5472 5456 5445 5436 5427 5419 5411 5406 5402 5398 5395 5392 5390 5389 5387 5386 5386 5386
5631 5625 5619 5613 5606 5599 5592 5584 5577 5569 5561 5553 5545 5535 5524 5512 5501 5489 5478 5465 5451 5433 5425 5417 5407 5401 5392 5386 5381 5378 5375 5374 5373 5372 5371 5371 5371 5372
5618 5612 5605 5598 5591 5584 5576 5568 5560 5551 5543 5535 5525 5514 5503 5491 5479 5465 5453 5443 5434 5419 5409 5402 5390 5384 5376 5369 5363 5358 5355 5354 5354 5354 5354 5355 5356 5357
5605 5598 5591 5584 5576 5569 5561 5553 5543 5532 5523 5514 5505 5493 5482 5470 5459 5446 5433 5423 5414 5400 5392 5389 5377 5369 5361 5353 5345 5340 5338 5337 5337 5337 5338 5339 5340 5342
5591 5585 5578 5570 5562 5554 5547 5538 5527 5515 5505 5494 5484 5472 5459 5447 5437 5428 5417 5409 5400 5385 5372 5369 5362 5354 5347 5338 5328 5323 5320 5320 5320 5321 5322 5323 5325 5327
5577 5570 5563 5555 5547 5539 5531 5522 5511 5498 5485 5473 5462 5451 5439 5429 5419 5411 5402 5393 5385 5374 5357 5351 5345 5337 5333 5325 5314 5307 5304 5304 5304 5306 5307 5308 5310 5313
5563 5555 5548 5539 5531 5521 5513 5503 5493 5482 5469 5455 5443 5432 5422 5412 5403 5395 5386 5377 5367 5359 5346 5337 5329 5320 5318 5314 5304 5295 5290 5289 5290 5292 5293 5295 5297 5300
5548 5540 5532 5523 5514 5504 5494 5485 5475 5465 5453 5441 5429 5419 5409 5400 5390 5381 5370 5360 5351 5342 5332 5323 5317 5307 5301 5300 5295 5287 5282 5280 5280 5280 5281 5283 5285 5288
5534 5525 5516 5506 5496 5486 5476 5466 5456 5446 5436 5426 5417 5409 5400 5390 5380 5369 5359 5348 5338 5328 5319 5311 5304 5298 5291 5287 5284 5280 5275 5272 5272 5272 5272 5274 5275 5278
5518 5508 5497 5488 5477 5467 5457 5447 5438 5429 5421 5414 5407 5399 5390 5381 5371 5361 5350 5340 5329 5318 5308 5301 5295 5289 5284 5279 5276 5273 5270 5267 5265 5265 5265 5266 5267 5269
5499 5488 5477 5467 5457 5447 5437 5429 5422 5416 5410 5404 5398 5390 5382 5372 5362 5352 5343 5333 5324 5315 5304 5295 5289 5284 5279 5274 5270 5268 5265 5263 5262 5260 5260 5261 5261 5262
5479 5467 5455 5445 5435 5427 5420 5415 5411 5406 5401 5396 5390 5383 5374 5365 5355 5345 5336 5326 5317 5310 5304 5296 5288 5281 5275 5271 5268 5265 5262 5260 5258 5256 5255 5255 5255 5254
5457 5445 5434 5424 5417 5411 5407 5404 5401 5398 5394 5389 5383 5376 5367 5358 5349 5340 5331 5322 5314 5307 5300 5294 5288 5282 5276 5270 5265 5263 5260 5258 5255 5253 5251 5250 5248 5246
5433 5422 5414 5408 5404 5401 5399 5397 5395 5392 5388 5383 5377 5369 5361 5353 5344 5336 5328 5320 5312 5305 5298 5292 5286 5281 5276 5271 5265 5260 5257 5254 5251 5248 5245 5242 5240 5238
5414 5406 5401 5398 5397 5396 5395 5393 5391 5388 5383 5378 5371 5364 5356 5348 5341 5333 5326 5318 5311 5304 5297 5290 5284 5278 5272 5268 5263 5258 5252 5247 5244 5241 5238 5234 5232 5229
5403 5399 5396 5395 5395 5394 5393 5391 5388 5384 5379 5373 5367 5360 5353 5345 5338 5331 5324 5316 5309 5302 5295 5288 5282 5275 5269 5263 5259 5254 5247 5241 5236 5233 5230 5227 5224 5221
5401 5399 5398 5397 5396 5394 5392 5389 5385 5381 5375 5370 5363 5357 5350 5343 5336 5329 5322 5315 5307 5300 5293 5287 5280 5273 5266 5259 5253 5248 5242 5236 5231 5226 5222 5219 5216 5213
5404 5402 5400 5399 5396 5394 5391 5387 5383 5378 5372 5367 5360 5354 5347 5341 5334 5327 5320 5313 5307 5300 5292 5285 5278 5270 5262 5255 5248 5242 5237 5232 5227 5222 5218 5214 5211 5207
Wind_Speed
44 44 45 47 48 50 52 54 55 55 54 55 57 58 60 61 62 64 65 67 68 70 73 76 79 82 84 86 89 92 94 97 99 100 101 103 104 105
44 45 47 49 51 53 55 57 58 58 59 60 61 61 62 63 64 65 67 69 72 75 79 83 86 89 92 94 96 98 98 98 97 95 93 92 91 89
45 46 49 52 54 56 58 58 59 61 62 63 64 65 65 66 67 69 72 75 79 84 88 91 94 96 97 97 96 93 89 84 80 76 73 70 69 67
46 48 52 55 57 58 59 60 61 63 64 64 64 65 67 69 72 74 78 83 87 92 95 96 97 95 92 88 82 75 69 65 61 59 58 56 54 52
48 51 55 58 59 59 60 62 63 64 65 65 66 68 70 74 77 80 85 90 94 95 95 92 87 82 77 72 66 61 58 55 53 52 50 48 47 46
51 55 58 59 60 61 62 63 64 65 66 67 68 71 74 78 82 85 88 91 91 89 85 78 73 69 66 63 59 56 55 53 51 49 47 45 44 43
55 57 59 60 61 62 63 64 65 66 68 69 72 75 78 82 86 88 88 84 79 75 70 66 65 63 61 59 57 55 54 52 50 47 46 44 42 41
56 58 59 61 62 63 64 65 67 69 71 73 75 78 82 85 86 85 81 74 66 63 62 59 61 59 58 56 55 55 53 50 48 47 46 44 42 41
56 58 60 61 62 63 65 66 69 72 74 76 79 82 84 84 81 76 70 64 59 59 59 56 57 55 53 52 53 53 52 49 47 46 45 43 42 41
57 58 60 61 63 64 65 67 70 73 76 79 82 83 82 78 72 66 61 57 55 57 59 56 53 52 49 48 50 51 50 48 46 43 42 42 41 41
57 59 61 63 64 66 68 70 73 76 79 82 82 79 74 68 62 58 55 55 53 53 57 55 51 49 44 44 47 49 49 47 43 40 39 38 39 39
59 61 63 64 66 69 71 73 75 77 79 78 75 69 62 57 55 54 55 55 54 52 52 51 48 46 40 37 40 44 45 43 39 36 35 35 36 36
60 62 64 67 69 72 74 76 77 77 75 69 62 56 52 51 52 54 55 55 54 52 50 47 42 40 37 32 32 37 39 37 35 33 31 31 31 32
62 65 68 70 73 75 77 78 77 72 64 56 50 47 46 48 50 52 52 53 52 50 47 44 39 35 32 28 25 29 32 32 30 29 28 25 25 27
66 69 72 75 77 79 79 75 68 59 51 45 42 41 43 46 47 48 49 49 48 47 45 42 37 32 28 23 20 22 24 25 26 23 20 19 20 22
72 76 78 80 80 78 72 63 53 45 40 37 36 38 40 43 45 46 45 44 40 37 39 38 34 30 25 21 18 17 19 20 21 20 17 16 18 20
78 81 82 80 75 66 55 45 38 34 32 31 32 35 38 41 42 42 40 38 34 30 27 29 29 28 25 21 15 12 13 15 18 18 18 18 20 22
82 81 76 69 58 46 37 32 29 27 27 28 31 34 37 38 37 36 35 33 29 27 25 23 22 22 23 23 19 12 10 13 16 18 19 19 22 26
76 68 58 46 35 27 24 22 21 22 24 28 31 33 34 34 32 31 30 29 27 26 25 23 22 20 18 18 21 19 15 15 17 19 21 21 22 25
56 44 33 23 18 15 14 16 18 21 24 27 29 31 31 30 29 28 28 27 25 25 25 26 25 24 22 19 19 22 23 21 20 19 20 22 22 23
31 21 14 10 9 10 13 16 19 21 23 26 28 29 29 28 27 27 27 27 26 26 27 27 27 27 25 22 21 22 24 25 23 21 20 20 20 21
14 11 9 9 10 12 15 17 20 21 24 26 27 28 28 27 27 27 27 27 28 28 28 28 28 27 26 25 24 23 22 23 22 21 18 17 17 17
13 12 11 12 13 15 17 19 21 22 24 25 27 28 28 28 28 28 28 29 29 28 27 27 27 27 27 26 25 23 21 19 18 17 17 16 15 15
Wind_Direction
287 289 291 292 294 295 297 298 298 297 296 296 296 296 296 295 294 293 292 292 291 291 290 289 288 288 287 286 284 283 282 280 279 278 276 274 272 271
287 288 290 293 294 296 297 298 298 298 298 298 297 297 296 295 294 294 293 293 293 293 292 291 291 290 289 288 287 285 284 283 281 279 277 276 274 272
286 288 291 293 295 296 297 298 298 299 299 299 299 298 297 297 296 296 296 296 296 296 296 295 295 294 292 291 290 288 286 284 282 280 278 276 274 272
287 289 291 293 294 295 297 298 299 300 300 299 299 298 298 298 298 298 298 299 299 299 299 298 297 296 294 292 290 288 285 283 280 278 277 275 273 271
288 290 291 293 294 295 297 298 299 300 300 299 299 299 299 299 300 301 302 302 302 302 301 300 298 296 294 291 289 287 284 280 278 276 274 273 271 268
289 289 291 293 295 297 298 299 300 300 300 300 300 300 301 302 303 304 304 304 304 302 301 300 298 296 294 292 290 286 282 278 276 273 271 269 268 265
288 289 292 294 296 298 299 299 300 300 300 300 301 302 303 304 305 306 306 305 304 301 300 299 298 297 295 293 290 286 282 278 274 271 268 266 264 262
289 291 293 296 298 299 300 300 300 301 301 302 304 305 305 306 307 308 307 306 303 300 299 299 298 297 295 292 289 286 283 279 275 270 267 264 261 260
291 293 295 297 298 299 300 301 302 302 303 305 306 306 307 308 309 308 307 306 304 301 299 300 298 297 295 291 287 284 282 279 275 271 267 263 260 258
293 295 296 297 298 299 300 301 303 304 305 306 308 310 310 310 309 308 306 305 305 303 302 302 300 297 295 291 287 284 281 278 275 272 267 263 259 256
296 297 297 298 299 300 301 303 305 306 307 309 310 310 310 309 308 308 307 307 307 306 304 305 303 299 295 291 287 284 281 279 276 271 267 263 258 255
297 298 299 299 300 301 302 304 305 307 308 309 310 311 310 310 310 310 311 311 311 310 307 307 305 301 295 288 284 282 282 282 279 273 268 262 257 253
298 299 300 300 301 302 303 304 305 307 308 309 309 309 310 311 313 314 315 315 315 315 313 312 310 306 302 294 282 280 281 281 280 277 271 263 256 251
300 300 300 301 301 302 303 305 306 308 308 308 308 309 311 314 316 317 318 318 318 317 316 317 317 315 310 302 287 279 281 282 281 278 274 267 257 250
302 301 301 301 301 302 304 305 307 307 308 308 309 311 314 316 318 319 320 320 320 318 318 321 323 323 320 312 295 284 280 282 284 283 279 270 260 254
302 301 301 301 302 303 304 305 306 306 307 308 310 314 317 320 321 322 323 323 322 319 318 322 327 329 328 323 311 293 285 282 283 288 287 278 268 263
302 301 301 302 303 304 304 304 305 307 308 310 314 319 322 324 324 325 327 329 329 328 325 324 328 332 334 333 327 309 295 289 289 290 290 286 281 277
303 303 303 303 303 303 303 304 307 310 313 317 321 324 326 327 328 330 333 335 335 334 334 334 332 331 331 332 334 327 307 297 293 292 289 284 280 281
305 305 305 304 304 303 305 308 313 317 321 324 327 328 330 331 333 335 337 338 337 338 339 340 340 339 335 328 324 327 321 309 300 294 290 287 283 281
309 310 310 309 310 312 315 319 323 325 327 329 331 333 335 337 338 339 340 340 341 341 341 341 342 341 338 333 325 320 320 315 307 300 293 290 288 286
319 323 328 333 336 334 333 332 330 330 331 334 336 338 340 341 342 342 343 343 344 343 342 342 340 339 337 333 327 321 316 313 311 307 301 295 292 290
353 7 15 10 357 347 341 338 336 336 336 338 340 342 343 344 345 345 346 346 344 342 341 340 339 339 337 334 330 326 321 316 315 314 312 306 300 294
28 26 16 3 353 347 342 341 340 340 340 341 343 344 345 347 347 347 346 344 343 341 341 342 343 342 340 338 337 336 333 329 325 322 320 315 307 301